Chesterfield, MO

8:58 AM CST on December 07, 2016 (GMT -0600)
Spirit Of Saint Louis

Weather History for KSUS - February, 2014

Change the Weather History Date:

Sunday, February 16, 2014

  Actual Average Record
Temperature  
Mean Temperature 30 °F -  
Max Temperature 32 °F 45 °F 73 °F (2006)
Min Temperature 26 °F 27 °F 3 °F (2007)
Degree Days  
Heating Degree Days 36    
Moisture  
Dew Point 22 °F    
Average Humidity 74    
Maximum Humidity 86    
Minimum Humidity 69    
Precipitation  
Precipitation 0.00 in - - ()
Sea Level Pressure  
Sea Level Pressure 30.17 in    
Wind  
Wind Speed 6 mph (NE)    
Max Wind Speed 13 mph    
Max Gust Speed 21 mph    
Visibility 9 miles    
Events      
Averages and records for this station are not official NWS values.
T = Trace of Precipitation, MM = Missing Value Source: NWS Daily Summary

Daily Weather History Graph

Daily Weather History Graph

Search for Another Location

Airport or City:

Trip Planner

Search our weather history database for the weather conditions in past years. The results will help you decide how hot, cold, wet, or windy it might be!

Date:

Astronomy

Feb. 16, 2014 Rise Set
Actual Time 6:52 AM CST 5:41 PM CST
Civil Twilight 6:25 AM CST 6:08 PM CST
Nautical Twilight 5:54 AM CST 6:39 PM CST
Astronomical Twilight 5:23 AM CST 7:10 PM CST
Moon 7:36 PM CST (2/16) 7:23 AM CST (2/16)
Length of Visible Light 11h 43m
Length of Day
10h 49m
Full, 97% of the Moon is Illuminated
Feb 16
Full
Feb 22
Last Quarter
Mar 1
New
Mar 8
First Quarter
Mar 16
Full

Hourly Weather History & Observations

Time (CST) Temp. Windchill Dew Point Humidity Pressure Visibility Wind Dir Wind Speed Gust Speed Precip Events Conditions
12:54 AM 28.0 °F - 19.9 °F 72% 30.01 in 10.0 mi Calm Calm - N/A   Mostly Cloudy
1:54 AM 28.0 °F 22.8 °F 21.0 °F 75% 30.01 in 10.0 mi West 4.6 mph - N/A   Clear
2:54 AM 30.0 °F 22.4 °F 21.9 °F 72% 30.03 in 10.0 mi West 8.1 mph - N/A   Clear
3:54 AM 30.9 °F 21.2 °F 24.1 °F 76% 30.04 in 10.0 mi NW 12.7 mph 20.7 mph N/A   Scattered Clouds
4:02 AM 30.2 °F 21.3 °F 24.8 °F 80% 30.03 in 10.0 mi NW 10.4 mph 19.6 mph N/A   Mostly Cloudy
4:54 AM 30.0 °F 21.1 °F 24.1 °F 79% 30.09 in 10.0 mi NW 10.4 mph - N/A   Overcast
5:54 AM 30.0 °F 22.4 °F 24.1 °F 79% 30.09 in 10.0 mi North 8.1 mph - N/A   Overcast
6:54 AM 30.0 °F 22.4 °F 24.1 °F 79% 30.12 in 8.0 mi North 8.1 mph - N/A   Overcast
7:54 AM 30.0 °F 22.4 °F 23.0 °F 75% 30.18 in 9.0 mi North 8.1 mph - N/A   Overcast
8:54 AM 30.0 °F 24.1 °F 23.0 °F 75% 30.23 in 10.0 mi North 5.8 mph - N/A   Overcast
9:54 AM 30.0 °F 24.1 °F 23.0 °F 75% 30.25 in 7.0 mi North 5.8 mph - N/A   Overcast
10:54 AM 30.9 °F 26.2 °F 23.0 °F 72% 30.26 in 10.0 mi NNE 4.6 mph - N/A   Overcast
11:54 AM 30.9 °F 25.2 °F 23.0 °F 72% 30.26 in 10.0 mi NNE 5.8 mph - N/A   Overcast
12:54 PM 30.9 °F 25.2 °F 23.0 °F 72% 30.24 in 10.0 mi NE 5.8 mph - N/A   Overcast
1:54 PM 32.0 °F - 23.0 °F 69% 30.24 in 10.0 mi Calm Calm - N/A   Overcast
2:54 PM 32.0 °F 28.7 °F 23.0 °F 69% 30.22 in 10.0 mi NE 3.5 mph - N/A   Overcast
3:54 PM 30.9 °F 25.2 °F 23.0 °F 72% 30.22 in 10.0 mi East 5.8 mph - N/A   Overcast
4:54 PM 30.9 °F - 23.0 °F 72% 30.24 in 10.0 mi Calm Calm - N/A   Overcast
5:54 PM 30.0 °F 24.1 °F 24.1 °F 79% 30.24 in 10.0 mi ENE 5.8 mph - N/A   Mostly Cloudy
6:19 PM 28.4 °F 20.4 °F 24.8 °F 86% 30.19 in 8.0 mi East 8.1 mph - N/A   Scattered Clouds
6:52 PM 30.2 °F 21.3 °F 21.2 °F 69% 30.21 in 9.0 mi SE 10.4 mph - N/A   Mostly Cloudy
6:54 PM 30.0 °F 22.4 °F 21.9 °F 72% 30.24 in 9.0 mi SE 8.1 mph - N/A   Mostly Cloudy
7:12 PM 28.4 °F 21.2 °F 21.2 °F 74% 30.20 in 8.0 mi ESE 6.9 mph - N/A   Scattered Clouds
7:54 PM 28.9 °F 21.1 °F 21.0 °F 72% 30.22 in 8.0 mi East 8.1 mph - N/A   Clear
8:54 PM 28.0 °F 20.8 °F 19.9 °F 72% 30.24 in 9.0 mi ESE 6.9 mph - N/A   Partly Cloudy
9:54 PM 27.0 °F 16.1 °F 19.9 °F 75% 30.20 in 8.0 mi East 12.7 mph 19.6 mph N/A   Mostly Cloudy
10:54 PM 27.0 °F 18.0 °F 19.0 °F 72% 30.20 in 8.0 mi ESE 9.2 mph - N/A   Mostly Cloudy
11:54 PM 26.1 °F 15.6 °F 19.0 °F 75% 30.17 in 8.0 mi ESE 11.5 mph - N/A   Mostly Cloudy